Time,TemperatureF,DewpointF,PressureIn,WindDirection,WindDirectionDegrees,WindSpeedMPH,WindSpeedGustMPH,Humidity,HourlyPrecipIn,Conditions,Clouds,dailyrainin,SoftwareType,DateUTC
2013-03-17 00:02:00,2.0,-4.0,-100.00,NW,325,6.0,9.0,79,0.00,,,0.00,,2013-03-17 05:02:00,
2013-03-17 00:12:00,2.0,-4.0,-100.00,NNW,335,6.0,9.0,79,0.00,,,0.00,,2013-03-17 05:12:00,
2013-03-17 00:22:00,2.0,-4.0,-100.00,NNW,335,7.0,10.0,79,0.00,,,0.00,,2013-03-17 05:22:00,
2013-03-17 00:32:00,2.0,-4.0,-100.00,NNW,340,8.0,10.0,78,0.00,,,0.00,,2013-03-17 05:32:00,
2013-03-17 00:42:00,2.0,-4.0,-100.00,North,355,6.0,9.0,78,0.00,,,0.00,,2013-03-17 05:42:00,
2013-03-17 00:52:00,2.0,-4.0,-100.00,North,0,9.0,10.0,78,0.00,,,0.00,,2013-03-17 05:52:00,
2013-03-17 01:02:00,2.0,-4.0,-100.00,North,0,7.0,12.0,78,0.00,,,0.00,,2013-03-17 06:02:00,
2013-03-17 01:12:00,1.0,-4.0,-100.00,North,355,9.0,11.0,78,0.00,,,0.00,,2013-03-17 06:12:00,
2013-03-17 01:22:00,1.0,-4.0,-100.00,North,10,6.0,9.0,78,0.00,,,0.00,,2013-03-17 06:22:00,
2013-03-17 01:32:00,1.0,-4.0,-100.00,North,0,6.0,7.0,78,0.00,,,0.00,,2013-03-17 06:32:00,
2013-03-17 01:42:00,1.0,-4.0,-100.00,NNE,15,7.0,8.0,78,0.00,,,0.00,,2013-03-17 06:42:00,
2013-03-17 01:52:00,1.0,-4.0,-100.00,NE,35,9.0,10.0,78,0.00,,,0.00,,2013-03-17 06:52:00,
2013-03-17 02:02:00,1.0,-4.0,-100.00,NNE,30,9.0,11.0,79,0.00,,,0.00,,2013-03-17 07:02:00,
2013-03-17 02:12:00,1.0,-4.0,-100.00,NNE,30,9.0,11.0,79,0.00,,,0.00,,2013-03-17 07:12:00,
2013-03-17 02:22:00,1.0,-4.0,-100.00,NNE,25,9.0,12.0,79,0.00,,,0.00,,2013-03-17 07:22:00,
2013-03-17 02:32:00,1.0,-4.0,-100.00,NE,45,7.0,10.0,79,0.00,,,0.00,,2013-03-17 07:32:00,
2013-03-17 02:42:00,1.0,-4.0,-100.00,NE,55,9.0,11.0,79,0.00,,,0.00,,2013-03-17 07:42:00,
2013-03-17 02:52:00,2.0,-4.0,-100.00,NE,55,10.0,12.0,79,0.00,,,0.00,,2013-03-17 07:52:00,
2013-03-17 03:02:00,2.0,-4.0,-100.00,NE,55,8.0,12.0,79,0.00,,,0.00,,2013-03-17 08:02:00,
2013-03-17 03:12:00,2.0,-4.0,-100.00,ENE,65,8.0,11.0,78,0.00,,,0.00,,2013-03-17 08:12:00,
2013-03-17 03:22:00,2.0,-2.0,-100.00,ENE,60,9.0,12.0,78,0.00,,,0.00,,2013-03-17 08:22:00,
2013-03-17 03:32:00,2.0,-4.0,-100.00,ENE,65,10.0,12.0,77,0.00,,,0.00,,2013-03-17 08:32:00,
2013-03-17 03:42:00,2.0,-4.0,-100.00,ENE,60,9.0,14.0,77,0.00,,,0.00,,2013-03-17 08:42:00,
2013-03-17 03:52:00,2.0,-4.0,-100.00,ENE,60,10.0,13.0,77,0.00,,,0.00,,2013-03-17 08:52:00,
2013-03-17 04:02:00,1.0,-4.0,-100.00,ENE,60,9.0,12.0,77,0.00,,,0.00,,2013-03-17 09:02:00,
2013-03-17 04:12:00,1.0,-4.0,-100.00,ENE,65,11.0,13.0,77,0.00,,,0.00,,2013-03-17 09:12:00,
2013-03-17 04:22:00,1.0,-4.0,-100.00,ENE,65,12.0,14.0,77,0.00,,,0.00,,2013-03-17 09:22:00,
2013-03-17 04:32:00,1.0,-4.0,-100.00,ENE,70,15.0,16.0,77,0.00,,,0.00,,2013-03-17 09:32:00,
2013-03-17 04:42:00,1.0,-4.0,-100.00,ENE,70,13.0,16.0,77,0.00,,,0.00,,2013-03-17 09:42:00,
2013-03-17 04:53:00,1.0,-4.0,-100.00,ENE,70,13.0,16.0,77,0.00,,,0.00,,2013-03-17 09:53:00,
2013-03-17 05:03:00,1.0,-4.0,-100.00,ENE,70,12.0,15.0,77,0.00,,,0.00,,2013-03-17 10:03:00,
2013-03-17 05:13:00,1.0,-4.0,-100.00,ENE,70,11.0,14.0,77,0.00,,,0.00,,2013-03-17 10:13:00,
2013-03-17 05:23:00,1.0,-4.0,-100.00,ENE,70,13.0,15.0,77,0.00,,,0.00,,2013-03-17 10:23:00,
2013-03-17 05:33:00,1.0,-4.0,-100.00,ENE,60,11.0,13.0,77,0.00,,,0.00,,2013-03-17 10:33:00,
2013-03-17 05:42:00,1.0,-4.0,-100.00,East,80,11.0,15.0,77,0.00,,,0.00,,2013-03-17 10:42:00,
2013-03-17 05:52:00,2.0,-4.0,-100.00,East,80,14.0,18.0,76,0.00,,,0.00,,2013-03-17 10:52:00,
2013-03-17 06:02:00,2.0,-4.0,-100.00,East,80,13.0,19.0,76,0.00,,,0.00,,2013-03-17 11:02:00,
2013-03-17 06:12:00,2.0,-4.0,-100.00,East,80,13.0,17.0,76,0.00,,,0.00,,2013-03-17 11:12:00,
2013-03-17 06:22:00,2.0,-4.0,-100.00,East,90,11.0,17.0,76,0.00,,,0.00,,2013-03-17 11:22:00,
2013-03-17 06:32:00,1.0,-4.0,-100.00,East,90,9.0,16.0,75,0.00,,,0.00,,2013-03-17 11:32:00,
2013-03-17 06:42:00,1.0,-4.0,-100.00,East,85,10.0,15.0,75,0.00,,,0.00,,2013-03-17 11:42:00,
2013-03-17 06:52:00,1.0,-6.0,-100.00,East,90,9.0,14.0,75,0.00,,,0.00,,2013-03-17 11:52:00,
2013-03-17 07:02:00,1.0,-6.0,-100.00,East,80,11.0,14.0,75,0.00,,,0.00,,2013-03-17 12:02:00,
2013-03-17 07:12:00,1.0,-6.0,-100.00,East,90,10.0,14.0,75,0.00,,,0.00,,2013-03-17 12:12:00,
2013-03-17 07:22:00,1.0,-6.0,-100.00,East,80,9.0,13.0,75,0.00,,,0.00,,2013-03-17 12:22:00,
2013-03-17 07:32:00,1.0,-4.0,-100.00,East,95,9.0,13.0,75,0.00,,,0.00,,2013-03-17 12:32:00,
2013-03-17 07:42:00,1.0,-6.0,-100.00,East,85,9.0,12.0,75,0.00,,,0.00,,2013-03-17 12:42:00,
2013-03-17 07:52:00,1.0,-4.0,-100.00,East,90,9.0,12.0,75,0.00,,,0.00,,2013-03-17 12:52:00,
2013-03-17 08:02:00,1.0,-4.0,-100.00,East,90,9.0,16.0,74,0.00,,,0.00,,2013-03-17 13:02:00,
2013-03-17 08:12:00,2.0,-4.0,-100.00,East,95,11.0,17.0,74,0.00,,,0.00,,2013-03-17 13:12:00,
2013-03-17 08:22:00,2.0,-4.0,-100.00,East,90,10.0,15.0,73,0.00,,,0.00,,2013-03-17 13:22:00,
2013-03-17 08:32:00,3.0,-4.0,-100.00,East,95,12.0,18.0,73,0.00,,,0.00,,2013-03-17 13:32:00,
2013-03-17 08:42:00,4.0,-4.0,-100.00,East,100,16.0,23.0,71,0.00,,,0.00,,2013-03-17 13:42:00,
2013-03-17 08:52:00,4.0,-4.0,-100.00,ESE,105,17.0,22.0,70,0.00,,,0.00,,2013-03-17 13:52:00,
2013-03-17 09:02:00,4.0,-2.0,-100.00,East,100,15.0,24.0,70,0.00,,,0.00,,2013-03-17 14:02:00,
2013-03-17 09:12:00,5.0,-4.0,-100.00,East,100,14.0,21.0,70,0.00,,,0.00,,2013-03-17 14:12:00,
2013-03-17 09:22:00,5.0,-2.0,-100.00,ESE,115,15.0,21.0,68,0.00,,,0.00,,2013-03-17 14:22:00,
2013-03-17 09:32:00,6.0,-2.0,-100.00,ESE,105,14.0,19.0,67,0.00,,,0.00,,2013-03-17 14:32:00,
2013-03-17 09:42:00,6.0,-2.0,-100.00,ESE,120,17.0,23.0,66,0.00,,,0.00,,2013-03-17 14:42:00,
2013-03-17 09:52:00,7.0,-2.0,-100.00,ESE,105,16.0,20.0,65,0.00,,,0.00,,2013-03-17 14:52:00,
2013-03-17 10:02:00,7.0,-2.0,-100.00,ESE,105,13.0,24.0,65,0.00,,,0.00,,2013-03-17 15:02:00,
2013-03-17 10:12:00,8.0,0.0,-100.00,ESE,120,17.0,22.0,64,0.00,,,0.00,,2013-03-17 15:12:00,
2013-03-17 10:23:00,9.0,0.0,-100.00,SE,125,15.0,22.0,64,0.00,,,0.00,,2013-03-17 15:23:00,
2013-03-17 10:33:00,10.0,0.0,-100.00,SE,125,15.0,23.0,63,0.00,,,0.00,,2013-03-17 15:33:00,
2013-03-17 10:42:00,9.0,0.0,-100.00,SE,125,17.0,22.0,63,0.00,,,0.00,,2013-03-17 15:42:00,
2013-03-17 10:52:00,9.0,0.0,-100.00,SE,125,17.0,23.0,63,0.00,,,0.00,,2013-03-17 15:52:00,
2013-03-17 11:03:00,10.0,0.0,-100.00,SE,125,16.0,21.0,64,0.00,,,0.00,,2013-03-17 16:03:00,
2013-03-17 11:12:00,10.0,0.0,-100.00,SE,125,16.0,22.0,64,0.00,,,0.00,,2013-03-17 16:12:00,
2013-03-17 11:22:00,10.0,1.0,-100.00,SE,130,18.0,24.0,63,0.00,,,0.00,,2013-03-17 16:22:00,
2013-03-17 11:33:00,11.0,1.0,-100.00,SE,130,16.0,22.0,63,0.00,,,0.00,,2013-03-17 16:33:00,
2013-03-17 11:42:00,11.0,1.0,-100.00,SSE,150,14.0,22.0,64,0.00,,,0.00,,2013-03-17 16:42:00,
2013-03-17 11:52:00,12.0,3.0,-100.00,SE,140,15.0,23.0,63,0.00,,,0.00,,2013-03-17 16:52:00,
2013-03-17 12:02:00,13.0,3.0,-100.00,SSE,150,16.0,21.0,63,0.00,,,0.00,,2013-03-17 17:02:00,
2013-03-17 12:12:00,13.0,3.0,-100.00,SE,130,17.0,22.0,63,0.00,,,0.00,,2013-03-17 17:12:00,
2013-03-17 12:22:00,14.0,3.0,-100.00,SE,130,17.0,22.0,63,0.00,,,0.00,,2013-03-17 17:22:00,
2013-03-17 12:33:00,14.0,3.0,-100.00,SSE,150,19.0,23.0,63,0.00,,,0.00,,2013-03-17 17:33:00,
2013-03-17 12:42:00,14.0,3.0,-100.00,SE,140,18.0,26.0,64,0.00,,,0.00,,2013-03-17 17:42:00,
2013-03-17 12:52:00,15.0,5.0,-100.00,SE,145,15.0,26.0,64,0.00,,,0.00,,2013-03-17 17:52:00,
2013-03-17 13:02:00,15.0,5.0,-100.00,SE,130,17.0,26.0,64,0.00,,,0.00,,2013-03-17 18:02:00,
2013-03-17 13:12:00,15.0,5.0,-100.00,SSE,150,20.0,26.0,64,0.00,,,0.00,,2013-03-17 18:12:00,
2013-03-17 13:22:00,16.0,7.0,-100.00,SE,145,19.0,24.0,65,0.00,,,0.00,,2013-03-17 18:22:00,
2013-03-17 13:32:00,16.0,7.0,-100.00,SE,145,21.0,26.0,65,0.00,,,0.00,,2013-03-17 18:32:00,
2013-03-17 13:42:00,16.0,7.0,-100.00,SE,140,21.0,28.0,66,0.00,,,0.00,,2013-03-17 18:42:00,
2013-03-17 13:52:00,16.0,7.0,-100.00,SE,145,22.0,28.0,66,0.00,,,0.00,,2013-03-17 18:52:00,
2013-03-17 14:02:00,16.0,7.0,-100.00,SE,135,18.0,28.0,67,0.00,,,0.00,,2013-03-17 19:02:00,
2013-03-17 14:12:00,17.0,7.0,-100.00,SE,135,19.0,30.0,67,0.00,,,0.00,,2013-03-17 19:12:00,
2013-03-17 14:22:00,17.0,9.0,-100.00,SSE,150,16.0,24.0,68,0.00,,,0.00,,2013-03-17 19:22:00,
2013-03-17 14:33:00,17.0,9.0,-100.00,SE,140,16.0,28.0,68,0.00,,,0.00,,2013-03-17 19:33:00,
2013-03-17 14:42:00,18.0,9.0,-100.00,SE,130,16.0,27.0,68,0.00,,,0.00,,2013-03-17 19:42:00,
2013-03-17 14:53:00,18.0,9.0,-100.00,SE,125,19.0,26.0,67,0.00,,,0.00,,2013-03-17 19:53:00,
2013-03-17 15:02:00,18.0,9.0,-100.00,SE,135,17.0,29.0,67,0.00,,,0.00,,2013-03-17 20:02:00,
2013-03-17 15:12:00,19.0,10.0,-100.00,SE,135,16.0,26.0,67,0.00,,,0.00,,2013-03-17 20:12:00,
2013-03-17 15:22:00,19.0,10.0,-100.00,SE,125,16.0,26.0,67,0.00,,,0.00,,2013-03-17 20:22:00,
2013-03-17 15:32:00,19.0,10.0,-100.00,ESE,120,20.0,25.0,67,0.00,,,0.00,,2013-03-17 20:32:00,
2013-03-17 15:42:00,20.0,10.0,-100.00,ESE,120,17.0,27.0,67,0.00,,,0.00,,2013-03-17 20:42:00,
2013-03-17 15:52:00,20.0,10.0,-100.00,SE,125,19.0,27.0,67,0.00,,,0.00,,2013-03-17 20:52:00,
2013-03-17 16:02:00,20.0,10.0,-100.00,SE,130,19.0,28.0,68,0.00,,,0.00,,2013-03-17 21:02:00,
2013-03-17 16:12:00,20.0,12.0,-100.00,ESE,120,18.0,27.0,67,0.00,,,0.00,,2013-03-17 21:12:00,
2013-03-17 16:22:00,21.0,12.0,-100.00,SE,130,18.0,27.0,67,0.00,,,0.00,,2013-03-17 21:22:00,
2013-03-17 16:33:00,21.0,12.0,-100.00,ESE,120,19.0,27.0,67,0.00,,,0.00,,2013-03-17 21:33:00,
2013-03-17 16:42:00,21.0,12.0,-100.00,SE,125,17.0,24.0,67,0.00,,,0.00,,2013-03-17 21:42:00,
2013-03-17 16:52:00,21.0,12.0,-100.00,ESE,120,18.0,28.0,67,0.00,,,0.00,,2013-03-17 21:52:00,
2013-03-17 17:03:00,22.0,12.0,-100.00,ESE,115,20.0,29.0,67,0.00,,,0.00,,2013-03-17 22:03:00,
2013-03-17 17:12:00,21.0,12.0,-100.00,SE,125,22.0,27.0,66,0.00,,,0.00,,2013-03-17 22:12:00,
2013-03-17 17:23:00,22.0,12.0,-100.00,SE,125,21.0,30.0,66,0.00,,,0.00,,2013-03-17 22:23:00,
2013-03-17 17:33:00,22.0,12.0,-100.00,SE,125,21.0,27.0,66,0.00,,,0.00,,2013-03-17 22:33:00,
2013-03-17 17:42:00,22.0,12.0,-100.00,SE,125,23.0,30.0,65,0.00,,,0.00,,2013-03-17 22:42:00,
2013-03-17 17:52:00,22.0,12.0,-100.00,ESE,115,21.0,29.0,65,0.00,,,0.00,,2013-03-17 22:52:00,
2013-03-17 18:02:00,22.0,12.0,-100.00,SE,125,23.0,30.0,64,0.00,,,0.00,,2013-03-17 23:02:00,
2013-03-17 18:12:00,22.0,12.0,-100.00,ESE,120,20.0,25.0,65,0.00,,,0.00,,2013-03-17 23:12:00,
2013-03-17 18:22:00,22.0,12.0,-100.00,ESE,115,21.0,27.0,65,0.00,,,0.00,,2013-03-17 23:22:00,
2013-03-17 18:32:00,22.0,12.0,-100.00,ESE,120,22.0,29.0,65,0.00,,,0.00,,2013-03-17 23:32:00,
2013-03-17 18:42:00,22.0,12.0,-100.00,ESE,115,22.0,30.0,66,0.00,,,0.00,,2013-03-17 23:42:00,
2013-03-17 18:52:00,22.0,12.0,-100.00,SE,130,21.0,30.0,66,0.00,,,0.00,,2013-03-17 23:52:00,
2013-03-17 19:03:00,23.0,14.0,-100.00,ESE,120,21.0,29.0,66,0.00,,,0.00,,2013-03-18 00:03:00,
2013-03-17 19:12:00,22.0,14.0,-100.00,SE,125,20.0,29.0,66,0.00,,,0.00,,2013-03-18 00:12:00,
2013-03-17 19:22:00,23.0,14.0,-100.00,ESE,120,21.0,27.0,67,0.00,,,0.00,,2013-03-18 00:22:00,
2013-03-17 19:33:00,23.0,14.0,-100.00,SE,125,22.0,30.0,68,0.00,,,0.00,,2013-03-18 00:33:00,
2013-03-17 19:42:00,23.0,14.0,-100.00,ESE,120,21.0,32.0,68,0.00,,,0.00,,2013-03-18 00:42:00,
2013-03-17 19:52:00,23.0,14.0,-100.00,SE,125,26.0,34.0,68,0.00,,,0.00,,2013-03-18 00:52:00,
2013-03-17 20:02:00,22.0,14.0,-100.00,SE,130,26.0,33.0,71,0.00,,,0.00,,2013-03-18 01:02:00,
2013-03-17 20:12:00,23.0,16.0,-100.00,ESE,120,26.0,35.0,73,0.00,,,0.00,,2013-03-18 01:12:00,
2013-03-17 20:22:00,23.0,16.0,-100.00,SE,130,24.0,34.0,72,0.00,,,0.00,,2013-03-18 01:22:00,
2013-03-17 20:32:00,23.0,16.0,-100.00,ESE,120,25.0,33.0,72,0.00,,,0.00,,2013-03-18 01:32:00,
2013-03-17 20:42:00,23.0,16.0,-100.00,ESE,120,24.0,34.0,72,0.00,,,0.00,,2013-03-18 01:42:00,
2013-03-17 20:52:00,23.0,16.0,-100.00,SE,125,27.0,34.0,72,0.00,,,0.00,,2013-03-18 01:52:00,
2013-03-17 21:02:00,23.0,16.0,-100.00,ESE,120,27.0,36.0,72,0.00,,,0.00,,2013-03-18 02:02:00,
2013-03-17 21:12:00,23.0,16.0,-100.00,SE,125,26.0,39.0,72,0.00,,,0.00,,2013-03-18 02:12:00,
2013-03-17 21:22:00,23.0,16.0,-100.00,ESE,120,29.0,37.0,73,0.00,,,0.00,,2013-03-18 02:22:00,
2013-03-17 21:32:00,24.0,16.0,-100.00,SE,125,24.0,38.0,74,0.00,,,0.00,,2013-03-18 02:32:00,
2013-03-17 21:42:00,24.0,18.0,-100.00,SE,125,27.0,38.0,74,0.00,,,0.00,,2013-03-18 02:42:00,
2013-03-17 21:52:00,24.0,18.0,-100.00,SE,125,26.0,35.0,75,0.00,,,0.00,,2013-03-18 02:52:00,
2013-03-17 22:02:00,24.0,18.0,-100.00,SE,125,26.0,35.0,76,0.00,,,0.00,,2013-03-18 03:02:00,
2013-03-17 22:11:00,24.0,18.0,-100.00,ESE,120,27.0,36.0,76,0.00,,,0.00,,2013-03-18 03:11:00,
2013-03-17 22:22:00,24.0,19.0,-100.00,SE,125,29.0,35.0,80,0.00,,,0.00,,2013-03-18 03:22:00,
2013-03-17 22:33:00,24.0,19.0,-100.00,SE,125,28.0,40.0,84,0.00,,,0.00,,2013-03-18 03:33:00,
2013-03-17 22:42:00,24.0,21.0,-100.00,ESE,120,29.0,38.0,87,0.00,,,0.00,,2013-03-18 03:42:00,
2013-03-17 22:52:00,24.0,21.0,-100.00,ESE,120,28.0,40.0,90,0.00,,,0.00,,2013-03-18 03:52:00,
2013-03-17 23:03:00,24.0,21.0,-100.00,ESE,120,32.0,40.0,91,0.00,,,0.00,,2013-03-18 04:03:00,
2013-03-17 23:13:00,24.0,21.0,-100.00,ESE,115,29.0,40.0,91,0.00,,,0.00,,2013-03-18 04:13:00,
2013-03-17 23:22:00,24.0,23.0,-100.00,SE,135,29.0,39.0,93,0.00,,,0.00,,2013-03-18 04:22:00,
2013-03-17 23:33:00,24.0,23.0,-100.00,SE,125,32.0,40.0,94,0.00,,,0.00,,2013-03-18 04:33:00,
2013-03-17 23:42:00,25.0,23.0,-100.00,SE,125,29.0,41.0,94,0.00,,,0.00,,2013-03-18 04:42:00,
2013-03-17 23:52:00,25.0,23.0,-100.00,SE,125,31.0,45.0,94,0.00,,,0.00,,2013-03-18 04:52:00,